{"data":{"norad_id":67578,"intl_designator":"2026-016T","name":"STARLINK-36613","alt_names":[],"object_type":"PAYLOAD","status":"ACTIVE","operator":null,"country":"US","launch_date":"2026-01-25","launch_site_code":"AFWTR","launch_vehicle":null,"mission":null,"orbit_class":"UNKNOWN","rcs_meters":null,"size_class":null,"mass_kg":null,"dimensions":null,"purposes":["comms"],"wikipedia_slug":null,"has_3d_model":false,"image_url":null,"decayed_at":null,"tle_current":{"epoch":"2026-09-18T03:18:16.785792Z","epoch_age_seconds":276408,"freshness":"STALE","line1":"1 67578U 26016T   26261.13769428  .00015100  00000+0  46936-3 0  9992","line2":"2 67578  97.2855 319.7627 0000476 147.0961 213.0311 15.33427895 36356","mean_motion":15.33427895,"eccentricity":4.76e-5,"inclination_deg":97.2855,"raan_deg":319.7627,"arg_perigee_deg":147.0961,"mean_anomaly_deg":213.0311,"bstar":0.00046936,"rev_number":3635,"period_min":93.907252156777,"perigee_km":465.26830579801,"apogee_km":465.91982899562,"semimajor_km":6843.7310673968,"source":"CELESTRAK","updated_at":"2026-09-20T09:00:43.577855Z"}}}